KE4OGG Weather Reports


Display with metric or nautical units.
time (UTC)temp
F
wind
direction
speed
MPH
gust
MPH
rain 1hr
in
rain 24hr
in
rain mn
in
humidity
%
barometer
mb
20260503025024 54 339 0.0 2.0 0.00 0.00 0.00 34 1016.3
20260503024543 55 326 0.0 2.0 0.00 0.00 0.00 34 1016.2
20260503024024 55 289 1.0 2.0 0.00 0.00 0.00 34 1016.2
20260503023523 55 293 0.0 1.0 0.00 0.00 0.00 36 1016.1
20260503023040 55 319 0.0 1.0 0.00 0.00 0.00 34 1016.0
20260503022523 55 0 0.0 2.0 0.00 0.00 0.00 35 1016.0
20260503022023 56 0 0.0 2.0 0.00 0.00 0.00 32 1015.9
20260503021540 56 285 1.0 2.0 0.00 0.00 0.00 32 1015.8
20260503021024 56 295 1.0 2.0 0.00 0.00 0.00 32 1015.8
20260503020524 56 295 0.0 2.0 0.00 0.00 0.00 31 1015.7
20260503020041 57 0 0.0 2.0 0.00 0.00 0.00 33 1015.6
20260503015525 57 324 0.0 2.0 0.00 0.00 0.00 31 1015.6
20260503015025 57 281 0.0 2.0 0.00 0.00 0.00 32 1015.4
20260503014537 57 311 0.0 2.0 0.00 0.00 0.00 31 1015.4
20260503014025 57 0 0.0 1.0 0.00 0.00 0.00 31 1015.3
20260503013527 57 326 0.0 1.0 0.00 0.00 0.00 33 1015.3
20260503013040 57 311 0.0 1.0 0.00 0.00 0.00 33 1015.2
20260503012523 57 0 0.0 0.0 0.00 0.00 0.00 34 1015.1
20260503012023 57 0 0.0 2.0 0.00 0.00 0.00 35 1015.0
20260503011536 58 0 0.0 2.0 0.00 0.00 0.00 36 1014.9
20260503011024 58 323 0.0 3.0 0.00 0.00 0.00 35 1014.7
20260503010523 58 306 1.0 3.0 0.00 0.00 0.00 36 1014.7
20260503010040 58 323 0.0 3.0 0.00 0.00 0.00 36 1014.5
20260503005524 58 302 0.0 4.0 0.00 0.00 0.00 40 1014.5
20260503005027 58 295 0.0 4.0 0.00 0.00 0.00 45 1014.4
20260503004537 58 293 0.0 3.0 0.00 0.00 0.00 50 1014.3
20260503004024 57 340 1.0 3.0 0.00 0.00 0.00 53 1014.2
20260503003523 58 0 0.0 0.0 0.00 0.00 0.00 57 1014.0
20260503003040 58 0 0.0 0.0 0.00 0.00 0.00 55 1013.9
20260503002527 59 0 0.0 0.0 0.00 0.00 0.00 54 1013.9
20260503002024 59 0 0.0 0.0 0.00 0.00 0.00 53 1013.7
20260503001534 59 0 0.0 0.0 0.00 0.00 0.00 53 1013.6
20260503001022 59 0 0.0 0.0 0.00 0.00 0.00 52 1013.6
20260503000526 60 0 0.0 0.0 0.00 0.00 0.00 52 1013.4
20260503000051 60 0 0.0 0.0 0.00 0.00 0.00 52 1013.3
20260502235523 60 0 0.0 0.0 0.00 0.00 0.00 51 1013.3
20260502235022 61 0 0.0 0.0 0.00 0.00 0.00 51 1013.2
20260502234537 60 0 0.0 1.0 0.00 0.00 0.00 52 1013.1
20260502234023 60 0 0.0 1.0 0.00 0.00 0.00 53 1013.0
20260502233522 60 348 0.0 2.0 0.00 0.00 0.00 52 1013.0
20260502233037 60 0 0.0 2.0 0.00 0.00 0.00 55 1013.0
20260502232527 60 94 1.0 2.0 0.00 0.00 0.00 55 1012.9
20260502232023 60 94 0.0 2.0 0.00 0.00 0.00 54 1012.8
20260502231556 60 0 1.0 2.0 0.00 0.00 0.00 53 1012.8
20260502231023 61 0 0.0 4.0 0.00 0.00 0.00 53 1012.8
20260502230523 60 95 2.0 4.0 0.00 0.00 0.00 54 1012.7
20260502230041 60 101 0.0 4.0 0.00 0.00 0.00 53 1012.8
20260502225522 60 101 1.0 4.0 0.00 0.00 0.00 56 1012.7
20260502225027 60 98 1.0 4.0 0.00 0.00 0.00 55 1012.7
20260502224539 60 128 1.0 6.0 0.00 0.00 0.00 57 1012.7
20260502224026 59 101 2.0 6.0 0.00 0.00 0.00 58 1012.6
20260502223523 59 108 3.0 6.0 0.00 0.00 0.00 58 1012.5
20260502223037 59 101 2.0 4.0 0.00 0.00 0.00 58 1012.7
20260502222523 60 110 2.0 4.0 0.00 0.00 0.00 57 1012.5
20260502222025 60 110 1.0 3.0 0.00 0.00 0.00 55 1012.4
20260502221536 61 15 0.0 2.0 0.00 0.00 0.00 53 1012.4
20260502221023 61 15 0.0 2.0 0.00 0.00 0.00 51 1012.3
20260502220523 62 12 1.0 2.0 0.00 0.00 0.00 49 1012.2
20260502220043 62 28 0.0 2.0 0.00 0.00 0.00 50 1012.0
20260502215522 63 0 0.0 1.0 0.00 0.00 0.00 48 1011.9
20260502215022 63 0 0.0 2.0 0.00 0.00 0.00 47 1011.9
20260502214539 63 0 0.0 2.0 0.00 0.00 0.00 46 1011.9
20260502214027 64 0 1.0 3.0 0.00 0.00 0.00 45 1011.8
20260502213523 64 288 0.0 3.0 0.00 0.00 0.00 44 1011.7
20260502213040 64 89 1.0 3.0 0.00 0.00 0.00 43 1011.7
20260502212524 65 288 0.0 2.0 0.00 0.00 0.00 44 1011.7
20260502212025 65 293 0.0 2.0 0.00 0.00 0.00 42 1011.7
20260502211536 65 293 0.0 3.0 0.00 0.00 0.00 42 1011.7
20260502211022 65 293 1.0 3.0 0.00 0.00 0.00 40 1011.7
20260502210525 65 272 1.0 3.0 0.00 0.00 0.00 40 1011.8
20260502210035 65 302 1.0 6.0 0.00 0.00 0.00 39 1011.6
20260502205525 65 0 0.0 6.0 0.00 0.00 0.00 42 1011.8
20260502205022 65 89 3.0 6.0 0.00 0.00 0.00 40 1011.8
20260502204542 66 101 3.0 6.0 0.00 0.00 0.00 38 1011.7
20260502204025 67 94 2.0 7.0 0.00 0.00 0.00 41 1011.6
20260502203522 67 278 2.0 7.0 0.00 0.00 0.00 38 1011.8
20260502203041 68 283 1.0 3.0 0.00 0.00 0.00 37 1011.9
20260502202524 67 301 1.0 3.0 0.00 0.00 0.00 40 1011.9
20260502202024 66 308 1.0 3.0 0.00 0.00 0.00 39 1012.0
20260502201537 67 105 1.0 3.0 0.00 0.00 0.00 39 1012.0
20260502201024 67 88 0.0 8.0 0.00 0.00 0.00 42 1012.1
20260502200523 66 88 3.0 8.0 0.00 0.00 0.00 41 1012.1
20260502200036 66 97 3.0 5.0 0.00 0.00 0.00 42 1012.1
20260502195522 65 80 1.0 3.0 0.00 0.00 0.00 44 1012.1
20260502195022 64 308 1.0 2.0 0.00 0.00 0.00 40 1012.3
20260502194534 64 306 0.0 2.0 0.00 0.00 0.00 42 1012.3
20260502194022 64 223 0.0 3.0 0.00 0.00 0.00 43 1012.4
20260502193526 64 304 1.0 6.0 0.00 0.00 0.00 43 1012.3
20260502193049 63 95 2.0 6.0 0.00 0.00 0.00 43 1012.3
20260502192524 64 105 2.0 5.0 0.00 0.00 0.00 42 1012.3
20260502192023 64 102 1.0 5.0 0.00 0.00 0.00 43 1012.4
20260502191543 64 91 2.0 5.0 0.00 0.00 0.00 43 1012.4
20260502191026 63 90 2.0 6.0 0.00 0.00 0.00 43 1012.5
20260502190526 64 95 1.0 6.0 0.00 0.00 0.00 42 1012.5
20260502190038 65 81 2.0 5.0 0.00 0.00 0.00 40 1012.6
20260502185524 65 297 1.0 4.0 0.00 0.00 0.00 38 1012.4
20260502185025 66 273 1.0 7.0 0.00 0.00 0.00 37 1012.5
20260502184543 66 300 1.0 7.0 0.00 0.00 0.00 40 1012.7
20260502184024 66 75 3.0 8.0 0.00 0.00 0.00 41 1012.6
20260502183525 66 93 3.0 8.0 0.00 0.00 0.00 38 1012.7
20260502183040 66 281 2.0 9.0 0.00 0.00 0.00 40 1012.8
20260502182523 65 338 4.0 9.0 0.00 0.00 0.00 41 1012.8
20260502182024 64 291 1.0 7.0 0.00 0.00 0.00 41 1012.9
20260502181546 64 98 4.0 9.0 0.00 0.00 0.00 40 1012.8
20260502181024 64 89 2.0 9.0 0.00 0.00 0.00 45 1012.9
20260502180524 64 103 4.0 9.0 0.00 0.00 0.00 42 1013.0
20260502164023 63 359 0.0 10.0 0.00 0.00 0.00 47 1013.7
20260502163524 62 70 2.0 10.0 0.00 0.00 0.00 48 1013.9
20260502163042 62 94 3.0 6.0 0.00 0.00 0.00 49 1013.8
20260502162524 62 295 2.0 8.0 0.00 0.00 0.00 49 1013.9
20260502162024 61 92 1.0 8.0 0.00 0.00 0.00 51 1013.9
20260502161557 61 96 2.0 6.0 0.00 0.00 0.00 52 1013.9
20260502161031 60 285 1.0 4.0 0.00 0.00 0.00 53 1013.8
20260502160523 59 84 1.0 4.0 0.00 0.00 0.00 52 1014.0
20260502152023 60 333 2.0 6.0 0.00 0.00 0.00 52 1014.1
20260502151539 60 290 1.0 5.0 0.00 0.00 0.00 53 1014.1
20260502151023 60 283 0.0 5.0 0.00 0.00 0.00 54 1013.9
20260502150524 60 359 1.0 5.0 0.00 0.00 0.00 56 1013.8
20260502130523 57 94 0.0 2.0 0.00 0.00 0.00 63 1012.9
20260502123524 56 91 0.0 3.0 0.00 0.00 0.00 69 1012.6
20260502123108 56 0 0.0 1.0 0.00 0.00 0.00 73 1012.7
20260502122524 56 132 0.0 1.0 0.00 0.00 0.00 75 1012.8
20260502122030 56 0 0.0 1.0 0.00 0.00 0.00 77 1013.1
20260502121543 55 0 0.0 1.0 0.00 0.00 0.00 77 1013.3
20260502121025 55 0 0.0 1.0 0.00 0.00 0.00 79 1013.2
20260502120527 55 0 0.0 0.0 0.00 0.00 0.00 79 1013.2
20260502115527 55 0 0.0 1.0 0.00 0.00 0.00 79 1013.1
20260502115023 55 0 0.0 1.0 0.00 0.00 0.00 79 1013.1
20260502114536 55 0 0.0 0.0 0.00 0.00 0.00 79 1013.1
20260502114023 55 0 0.0 1.0 0.00 0.00 0.00 79 1012.9
20260502113523 55 0 0.0 1.0 0.00 0.00 0.00 80 1012.8
20260502113041 55 132 0.0 1.0 0.00 0.00 0.00 80 1012.6
20260502112523 55 0 0.0 0.0 0.00 0.00 0.00 80 1012.3
20260502112024 55 0 0.0 1.0 0.00 0.00 0.00 80 1012.6
20260502111539 55 0 0.0 1.0 0.00 0.00 0.00 80 1012.3
20260502111024 55 302 0.0 1.0 0.00 0.00 0.00 81 1012.5
20260502110526 55 0 0.0 1.0 0.00 0.00 0.00 81 1012.7
20260502110047 55 0 0.0 1.0 0.00 0.00 0.00 81 1012.1
20260502105524 55 0 0.0 1.0 0.00 0.00 0.00 81 1011.6
20260502105023 55 0 0.0 1.0 0.00 0.00 0.00 81 1011.7
20260502104539 55 0 0.0 1.0 0.00 0.00 0.00 81 1011.9
20260502104023 55 0 0.0 1.0 0.00 0.00 0.00 81 1012.3
20260502103523 55 0 0.0 1.0 0.00 0.00 0.00 82 1012.5
20260502103038 55 300 0.0 1.0 0.00 0.00 0.00 82 1012.5
20260502102525 55 0 0.0 1.0 0.00 0.00 0.00 82 1012.1
20260502102032 55 0 0.0 1.0 0.00 0.00 0.00 82 1012.0
20260502101535 55 0 0.0 1.0 0.00 0.00 0.00 82 1012.0
20260502101023 55 0 0.0 1.0 0.00 0.00 0.00 82 1012.1
20260502100523 55 330 0.0 1.0 0.00 0.00 0.00 82 1011.9
20260502091023 55 0 0.0 0.0 0.00 0.00 0.00 79 1011.9
20260502090524 55 0 0.0 0.0 0.00 0.00 0.00 78 1011.8
20260502071025 57 0 0.0 0.0 0.00 0.00 0.00 67 1012.3
20260502070527 57 0 0.0 0.0 0.00 0.00 0.00 67 1012.3
20260502070040 57 0 0.0 0.0 0.00 0.00 0.00 67 1012.4
20260502065524 57 0 0.0 0.0 0.00 0.00 0.00 66 1012.4
20260502065023 57 0 0.0 0.0 0.00 0.00 0.00 66 1012.3
20260502064541 57 0 0.0 0.0 0.00 0.00 0.00 66 1012.3
20260502064023 57 0 0.0 0.0 0.00 0.00 0.00 66 1012.3
20260502063523 56 0 0.0 0.0 0.00 0.00 0.00 66 1012.2
20260502063051 57 0 0.0 0.0 0.00 0.00 0.00 65 1012.2
20260502062523 57 0 0.0 0.0 0.00 0.00 0.00 65 1012.3
20260502062023 57 0 0.0 0.0 0.00 0.00 0.00 65 1012.2
20260502061537 57 0 0.0 0.0 0.00 0.00 0.00 65 1012.3
20260502061023 57 0 0.0 1.0 0.00 0.00 0.00 65 1012.4
20260502060525 57 0 0.0 1.0 0.00 0.00 0.00 65 1012.5
20260502060044 57 92 0.0 0.0 0.00 0.00 0.00 65 1012.4
20260502055524 57 0 0.0 0.0 0.00 0.00 0.00 65 1012.4
20260502055026 57 0 0.0 0.0 0.00 0.00 0.00 65 1012.7
20260502054539 57 0 0.0 0.0 0.00 0.00 0.00 65 1012.4
20260502054023 57 0 0.0 0.0 0.00 0.00 0.00 65 1012.7
20260502053523 57 0 0.0 0.0 0.00 0.00 0.00 65 1012.5
20260502053041 57 0 0.0 0.0 0.00 0.00 0.00 65 1012.7
20260502052524 57 0 0.0 0.0 0.00 0.00 0.00 64 1012.5
20260502052024 57 0 0.0 0.0 0.00 0.00 0.00 64 1012.7
20260502051538 57 0 0.0 0.0 0.00 0.00 0.00 64 1012.7
20260502051023 57 0 0.0 0.0 0.00 0.00 0.00 64 1012.8
20260502050524 57 0 0.0 0.0 0.00 0.00 0.00 64 1012.8
20260502050039 57 0 0.0 0.0 0.00 0.00 0.00 63 1013.0
20260502045523 57 0 0.0 0.0 0.00 0.00 0.00 63 1013.0
20260502045027 57 0 0.0 0.0 0.00 0.00 0.00 63 1013.1
20260502044543 57 0 0.0 0.0 0.00 0.00 0.00 63 1013.1
20260502044025 58 0 0.0 0.0 0.00 0.00 0.00 63 1013.1
20260502043526 58 0 0.0 0.0 0.00 0.00 0.00 63 1013.2
20260502043045 58 0 0.0 0.0 0.00 0.00 0.00 63 1013.3
20260502042524 58 0 0.0 0.0 0.00 0.00 0.00 63 1013.3
20260502042024 58 0 0.0 0.0 0.00 0.00 0.00 62 1013.3
20260502041545 58 0 0.0 0.0 0.00 0.00 0.00 62 1013.2
20260502041023 58 0 0.0 0.0 0.00 0.00 0.00 62 1013.3
20260502040523 58 0 0.0 0.0 0.00 0.00 0.00 62 1013.4
20260502040040 58 0 0.0 0.0 0.00 0.00 0.00 62 1013.4
20260502035523 58 0 0.0 0.0 0.00 0.00 0.00 62 1013.5
20260502035023 58 0 0.0 0.0 0.00 0.00 0.00 62 1013.6
20260502034537 58 0 0.0 0.0 0.00 0.00 0.00 62 1013.5
20260502034023 58 0 0.0 0.0 0.00 0.00 0.00 62 1013.5
20260502033526 58 0 0.0 0.0 0.00 0.00 0.00 62 1013.4
20260502033043 58 0 0.0 0.0 0.00 0.00 0.00 62 1013.6
20260502032526 58 0 0.0 0.0 0.00 0.00 0.00 61 1013.5
20260502032024 58 0 0.0 0.0 0.00 0.00 0.00 61 1013.4
20260502031540 58 0 0.0 0.0 0.00 0.00 0.00 61 1013.5
20260502031025 58 0 0.0 0.0 0.00 0.00 0.00 61 1013.6
20260502030524 58 0 0.0 0.0 0.00 0.00 0.00 61 1013.6
20260502030039 58 0 0.0 0.0 0.00 0.00 0.00 61 1013.5
20260502025523 58 0 0.0 0.0 0.00 0.00 0.00 61 1013.6